TimeHST,TemperatureF,Dew PointF,Humidity,Sea Level PressureIn,VisibilityMPH,Wind Direction,Wind SpeedMPH,Gust SpeedMPH,PrecipitationIn,Events,Conditions,WindDirDegrees,DateUTC
12:53 AM,70.0,59.0,68,30.23,10.0,Variable,4.6,-,0.00,Rain,Light Rain,0,2013-03-01 10:53:00
1:53 AM,70.0,57.0,63,30.20,10.0,ENE,3.5,-,0.00,,Clear,60,2013-03-01 11:53:00
2:53 AM,69.1,55.0,61,30.18,10.0,East,5.8,-,N/A,,Partly Cloudy,80,2013-03-01 12:53:00
3:53 AM,69.1,55.9,63,30.16,10.0,ENE,3.5,-,N/A,,Mostly Cloudy,70,2013-03-01 13:53:00
4:53 AM,71.1,55.9,59,30.14,10.0,East,6.9,20.7,N/A,,Scattered Clouds,80,2013-03-01 14:53:00
5:33 AM,69.8,55.4,60,30.13,10.0,ENE,5.8,-,N/A,,Scattered Clouds,70,2013-03-01 15:33:00
5:53 AM,69.1,55.0,61,30.15,10.0,ENE,8.1,-,N/A,,Partly Cloudy,70,2013-03-01 15:53:00
6:53 AM,70.0,53.1,55,30.16,10.0,ENE,8.1,-,N/A,,Clear,70,2013-03-01 16:53:00
7:53 AM,72.0,53.1,51,30.18,10.0,ENE,8.1,-,N/A,,Clear,70,2013-03-01 17:53:00
8:53 AM,75.0,55.9,51,30.19,10.0,ENE,8.1,-,N/A,,Clear,70,2013-03-01 18:53:00
9:53 AM,77.0,57.0,50,30.20,10.0,Variable,6.9,18.4,N/A,,Scattered Clouds,0,2013-03-01 19:53:00
10:53 AM,75.9,57.0,52,30.21,10.0,ENE,13.8,24.2,N/A,,Scattered Clouds,70,2013-03-01 20:53:00
11:53 AM,78.1,55.9,46,30.19,10.0,ENE,10.4,23.0,N/A,,Partly Cloudy,70,2013-03-01 21:53:00
12:53 PM,79.0,55.9,45,30.17,10.0,ENE,9.2,18.4,N/A,,Scattered Clouds,70,2013-03-01 22:53:00
1:53 PM,80.1,55.0,42,30.15,10.0,ENE,13.8,21.9,N/A,,Clear,70,2013-03-01 23:53:00
2:53 PM,77.0,53.1,43,30.14,10.0,ENE,11.5,21.9,N/A,,Scattered Clouds,60,2013-03-02 00:53:00
3:53 PM,77.0,55.0,47,30.12,10.0,ENE,11.5,23.0,N/A,,Scattered Clouds,70,2013-03-02 01:53:00
4:53 PM,75.9,55.9,50,30.11,10.0,ENE,13.8,24.2,N/A,,Clear,60,2013-03-02 02:53:00
5:53 PM,73.9,57.9,57,30.12,10.0,ENE,10.4,19.6,N/A,,Clear,60,2013-03-02 03:53:00
6:53 PM,72.0,57.9,61,30.14,10.0,ENE,6.9,-,N/A,,Clear,70,2013-03-02 04:53:00
7:53 PM,71.1,55.9,59,30.15,10.0,Variable,5.8,-,N/A,,Clear,0,2013-03-02 05:53:00
8:53 PM,70.0,55.9,61,30.16,10.0,Variable,4.6,-,N/A,,Clear,0,2013-03-02 06:53:00
9:53 PM,71.1,57.0,61,30.18,10.0,Variable,6.9,-,N/A,,Partly Cloudy,0,2013-03-02 07:53:00
10:53 PM,71.1,55.9,59,30.19,10.0,East,8.1,-,N/A,,Partly Cloudy,80,2013-03-02 08:53:00
11:53 PM,70.0,57.0,63,30.19,10.0,East,5.8,-,N/A,,Partly Cloudy,80,2013-03-02 09:53:00